TimeCDT,TemperatureF,Dew PointF,Humidity,Sea Level PressureIn,VisibilityMPH,Wind Direction,Wind SpeedMPH,Gust SpeedMPH,PrecipitationIn,Events,Conditions,WindDirDegrees,DateUTC
12:13 AM,21.2,15.8,80,29.84,10.0,West,3.5,-,N/A,,Overcast,280,2013-03-12 05:13:00
12:33 AM,21.2,17.6,86,29.84,10.0,WNW,3.5,-,N/A,,Overcast,290,2013-03-12 05:33:00
12:52 AM,21.2,17.6,86,29.84,10.0,WNW,5.8,-,N/A,,Overcast,290,2013-03-12 05:52:00
1:13 AM,21.2,17.6,86,29.84,10.0,WNW,3.5,-,N/A,,Overcast,290,2013-03-12 06:13:00
1:32 AM,21.2,17.6,86,29.84,10.0,WNW,3.5,-,N/A,,Overcast,290,2013-03-12 06:32:00
1:53 AM,21.2,17.6,86,29.84,10.0,WNW,4.6,-,N/A,,Overcast,290,2013-03-12 06:53:00
2:13 AM,21.2,19.4,93,29.84,10.0,WNW,4.6,-,N/A,,Overcast,290,2013-03-12 07:13:00
2:32 AM,23.0,19.4,86,29.84,10.0,WNW,3.5,-,N/A,,Overcast,290,2013-03-12 07:32:00
2:53 AM,23.0,19.4,86,29.83,10.0,WNW,4.6,-,N/A,,Overcast,290,2013-03-12 07:53:00
3:12 AM,23.0,19.4,86,29.83,10.0,WNW,4.6,-,N/A,,Overcast,290,2013-03-12 08:12:00
3:33 AM,23.0,19.4,86,29.83,10.0,NW,6.9,-,N/A,,Overcast,320,2013-03-12 08:33:00
3:53 AM,23.0,19.4,86,29.83,10.0,NW,5.8,-,N/A,,Overcast,320,2013-03-12 08:53:00
4:12 AM,23.0,21.2,93,29.83,10.0,WNW,8.1,-,N/A,,Overcast,300,2013-03-12 09:12:00
4:33 AM,23.0,21.2,93,29.83,10.0,NW,9.2,-,N/A,,Overcast,310,2013-03-12 09:33:00
4:53 AM,23.0,21.2,93,29.84,7.0,WNW,8.1,-,N/A,,Overcast,300,2013-03-12 09:53:00
5:12 AM,23.0,19.4,86,29.85,10.0,NW,8.1,-,N/A,,Overcast,310,2013-03-12 10:12:00
5:33 AM,21.2,17.6,86,29.85,10.0,NW,8.1,-,N/A,,Overcast,310,2013-03-12 10:33:00
5:53 AM,21.2,17.6,86,29.86,10.0,NW,9.2,-,N/A,,Overcast,310,2013-03-12 10:53:00
6:12 AM,21.2,17.6,86,29.87,10.0,NW,9.2,-,N/A,Snow,Light Snow,310,2013-03-12 11:12:00
6:32 AM,19.4,17.6,93,29.88,10.0,NW,9.2,-,N/A,,Overcast,320,2013-03-12 11:32:00
6:53 AM,19.4,17.6,93,29.89,10.0,NW,8.1,-,N/A,,Mostly Cloudy,320,2013-03-12 11:53:00
7:12 AM,19.4,17.6,93,29.89,10.0,NW,6.9,-,N/A,,Mostly Cloudy,310,2013-03-12 12:12:00
7:32 AM,19.4,15.8,86,29.90,10.0,NW,8.1,-,N/A,,Scattered Clouds,310,2013-03-12 12:32:00
7:53 AM,17.6,15.8,93,29.91,10.0,NW,9.2,-,N/A,,Mostly Cloudy,310,2013-03-12 12:53:00
8:32 AM,17.6,14.0,86,29.92,10.0,NW,11.5,17.3,N/A,,Scattered Clouds,310,2013-03-12 13:32:00
8:53 AM,19.4,15.8,86,29.93,10.0,NW,8.1,16.1,N/A,,Scattered Clouds,320,2013-03-12 13:53:00
9:12 AM,19.4,15.8,86,29.94,7.0,NW,12.7,17.3,N/A,,Scattered Clouds,310,2013-03-12 14:12:00
9:32 AM,19.4,15.8,86,29.94,7.0,NW,10.4,-,N/A,,Scattered Clouds,310,2013-03-12 14:32:00
9:53 AM,19.4,15.8,86,29.95,7.0,NW,13.8,23.0,N/A,,Mostly Cloudy,310,2013-03-12 14:53:00
10:12 AM,21.2,17.6,86,29.96,10.0,NW,11.5,-,N/A,,Mostly Cloudy,320,2013-03-12 15:12:00
10:32 AM,21.2,17.6,86,29.96,10.0,NW,13.8,-,N/A,,Scattered Clouds,310,2013-03-12 15:32:00
10:53 AM,21.2,17.6,86,29.97,10.0,NW,16.1,21.9,N/A,,Mostly Cloudy,310,2013-03-12 15:53:00
11:12 AM,21.2,17.6,86,29.98,7.0,NW,17.3,25.3,N/A,,Mostly Cloudy,320,2013-03-12 16:12:00
11:32 AM,23.0,17.6,80,29.99,7.0,NW,18.4,21.9,N/A,,Scattered Clouds,310,2013-03-12 16:32:00
11:53 AM,23.0,17.6,80,29.99,3.0,NW,18.4,23.0,N/A,,Haze,310,2013-03-12 16:53:00
12:12 PM,23.0,19.4,86,30.00,4.0,NW,11.5,19.6,N/A,,Overcast,310,2013-03-12 17:12:00
12:32 PM,24.8,19.4,80,30.00,10.0,NW,15.0,21.9,N/A,,Mostly Cloudy,310,2013-03-12 17:32:00
12:53 PM,24.8,17.6,74,30.00,10.0,NW,19.6,27.6,N/A,,Scattered Clouds,310,2013-03-12 17:53:00
1:12 PM,24.8,17.6,74,30.00,10.0,NW,18.4,26.5,N/A,,Scattered Clouds,310,2013-03-12 18:12:00
1:33 PM,24.8,17.6,74,30.01,10.0,WNW,19.6,28.8,N/A,,Scattered Clouds,300,2013-03-12 18:33:00
1:52 PM,26.6,17.6,69,30.01,10.0,WNW,20.7,28.8,N/A,,Scattered Clouds,300,2013-03-12 18:52:00
2:13 PM,26.6,17.6,69,30.01,10.0,NW,18.4,25.3,N/A,,Mostly Cloudy,310,2013-03-12 19:13:00
2:33 PM,26.6,17.6,69,30.01,10.0,NW,19.6,25.3,N/A,,Overcast,310,2013-03-12 19:33:00
2:52 PM,26.6,17.6,69,30.01,10.0,NW,21.9,26.5,N/A,,Overcast,310,2013-03-12 19:52:00
3:13 PM,26.6,17.6,69,30.02,10.0,NW,20.7,28.8,N/A,,Overcast,310,2013-03-12 20:13:00
3:33 PM,26.6,17.6,69,30.02,10.0,NW,20.7,29.9,N/A,,Overcast,310,2013-03-12 20:33:00
3:52 PM,26.6,17.6,69,30.03,10.0,WNW,20.7,31.1,N/A,,Overcast,300,2013-03-12 20:52:00
4:13 PM,26.6,17.6,69,30.03,10.0,NW,17.3,23.0,N/A,,Mostly Cloudy,320,2013-03-12 21:13:00
4:33 PM,24.8,17.6,74,30.04,10.0,NW,16.1,29.9,N/A,,Mostly Cloudy,310,2013-03-12 21:33:00
4:52 PM,26.6,17.6,69,30.05,10.0,NW,19.6,28.8,N/A,,Overcast,310,2013-03-12 21:52:00
5:13 PM,24.8,17.6,74,30.06,10.0,NW,17.3,26.5,N/A,,Scattered Clouds,310,2013-03-12 22:13:00
5:32 PM,24.8,17.6,74,30.07,10.0,WNW,18.4,31.1,N/A,,Clear,300,2013-03-12 22:32:00
5:52 PM,24.8,17.6,74,30.07,10.0,NW,16.1,26.5,N/A,,Clear,310,2013-03-12 22:52:00
6:13 PM,24.8,17.6,74,30.08,10.0,WNW,16.1,25.3,N/A,,Clear,300,2013-03-12 23:13:00
6:33 PM,24.8,15.8,69,30.09,10.0,NW,17.3,24.2,N/A,,Clear,310,2013-03-12 23:33:00
6:52 PM,23.0,15.8,74,30.10,10.0,NW,16.1,23.0,N/A,,Clear,310,2013-03-12 23:52:00
7:13 PM,23.0,15.8,74,30.11,10.0,NW,15.0,23.0,N/A,,Clear,310,2013-03-13 00:13:00
7:32 PM,23.0,15.8,74,30.12,10.0,NW,15.0,23.0,N/A,,Clear,310,2013-03-13 00:32:00
7:52 PM,21.2,15.8,80,30.13,10.0,NW,13.8,19.6,N/A,,Clear,310,2013-03-13 00:52:00
8:13 PM,21.2,15.8,80,30.14,10.0,NW,12.7,-,N/A,,Clear,310,2013-03-13 01:13:00
8:32 PM,21.2,15.8,80,30.16,10.0,NW,12.7,19.6,N/A,,Clear,310,2013-03-13 01:32:00
8:52 PM,19.4,15.8,86,30.16,10.0,NW,15.0,23.0,N/A,,Clear,310,2013-03-13 01:52:00
9:13 PM,19.4,15.8,86,30.17,10.0,NW,13.8,19.6,N/A,,Clear,310,2013-03-13 02:13:00
9:33 PM,19.4,15.8,86,30.18,10.0,NW,11.5,17.3,N/A,,Clear,310,2013-03-13 02:33:00
9:52 PM,19.4,15.8,86,30.19,10.0,NW,15.0,-,N/A,,Clear,320,2013-03-13 02:52:00
10:13 PM,19.4,15.8,86,30.19,10.0,NW,12.7,18.4,N/A,,Clear,320,2013-03-13 03:13:00
10:33 PM,17.6,14.0,86,30.20,10.0,NW,15.0,-,N/A,,Clear,320,2013-03-13 03:33:00
10:52 PM,17.6,14.0,86,30.21,10.0,NW,13.8,17.3,N/A,,Clear,320,2013-03-13 03:52:00
11:13 PM,17.6,14.0,86,30.21,10.0,NW,11.5,-,N/A,,Clear,320,2013-03-13 04:13:00
11:32 PM,17.6,14.0,86,30.22,10.0,NW,12.7,-,N/A,,Clear,320,2013-03-13 04:32:00
11:53 PM,15.8,12.2,86,30.23,10.0,NW,10.4,-,N/A,,Clear,310,2013-03-13 04:53:00